Home   Weather   Reutte   Past weeks

Flag for Austria Past Weather in Reutte, Tyrol, Austria — Yesterday and Last 2 Weeks

Now
29 °F

Chilly.


Feels Like: 26 °F
Forecast: 22 / 46 °F
Wind: 3 mph from West

Location: Landeck

Current Time: Dec 8, 2016 at 1:35:34 am

Latest Report: Dec 8, 2016 at 12:00 am


Visibility: N/A

Pressure: 30.77 "Hg (27.63 "Hg at 856m altitude)

Humidity: 59%

Dew Point: 17 °F

Location of ReutteLocation

Past Weather in Reutte — Graph

°F

Reutte Temperature Yesterday

Maximum temperature yesterday: 33 °F (at 2:00 pm)
Minimum temperature yesterday: 26 °F (at 9:00 am)
Average temperature yesterday: 30 °F

High & Low Weather Summary for the Past Weeks

 TemperatureHumidityPressure
High54 °F (Nov 23, 2:00 pm)97% (Nov 26, 5:00 am)30.77 "Hg (Nov 26, 5:00 am)
Low21 °F (Nov 29, 8:00 am)41% (Dec 7, 2:00 pm)29.94 "Hg (Nov 25, 3:00 pm)
Average35 °F71%30.32 "Hg
* Reported Nov 23 12:00 am — Dec 8 12:00 am, Reutte, Weather by CustomWeather, © 2016

Note: Actual official high and low records may vary slightly from our data, if they occured in-between our weather recording intervals... More about our weather records

Advertising

Reutte Weather History for the Previous 24 Hours

Scroll right to see more
 ConditionsComfort  
Time TempWeatherWind HumidityBarometerVisibility
12:00 am
Thu, Dec 8
29 °FChilly.3 mph59%30.77 "HgN/A
11:00 pm
Wed, Dec 7
30 °FChilly.3 mph56%30.75 "HgN/A
10:00 pm31 °FChilly.1 mph53%30.73 "HgN/A
9:00 pm30 °FChilly.1 mph57%30.73 "HgN/A
8:00 pm31 °FChilly.2 mph51%30.71 "HgN/A
7:00 pm32 °FChilly.2 mph51%30.68 "HgN/A
6:00 pm30 °FChilly.2 mph55%30.68 "HgN/A
5:00 pm32 °FChilly.2 mph50%30.66 "HgN/A
4:00 pm33 °FChilly.1 mph46%30.63 "HgN/A
3:00 pm33 °FChilly.1 mph42%30.61 "HgN/A
2:00 pm33 °FChilly.2 mph41%30.61 "HgN/A
1:00 pm31 °FChilly.5 mph49%30.65 "HgN/A
12:00 pm33 °FChilly.3 mph44%30.67 "HgN/A
11:00 am30 °FChilly.3 mph54%30.72 "HgN/A
10:00 am28 °FChilly.2 mph57%30.74 "HgN/A
9:00 am26 °FChilly.3 mph61%30.75 "HgN/A
8:00 am26 °FChilly.2 mph61%30.73 "HgN/A
7:00 am26 °FChilly.3 mph62%30.74 "HgN/A
6:00 am27 °FChilly.3 mph59%30.72 "HgN/A
5:00 am26 °FChilly.3 mph64%30.72 "HgN/A
4:00 am26 °FChilly.2 mph65%30.71 "HgN/A
3:00 am27 °FChilly.3 mph63%30.70 "HgN/A
1:00 am30 °FChilly.2 mph58%30.67 "HgN/A
Weather by CustomWeather, © 2016

See weather overviewHow to use our weather pages